Location: A�t Bou Mzil
(32.9515°N, 5.3320°W)
Time: 00:44:08
(UTC+00:00)

Daily predictions for brighter satellites

Satellite Brightness Start Highest point End
(mag) Time Altitude Azimuth Time Altitude Azimuth Time Altitude Azimuth
Cosmos 2322 Rocket 3.8 03:08:24 31° ENE 03:08:24 31° ENE 03:11:54 10° NE
Cosmos 2263 Rocket 3.8 03:03:03 10° N 03:08:00 30° ENE 03:12:57 10° ESE
SL-16 R/B 3.4 03:20:04 37° NE 03:20:04 37° NE 03:23:30 10° NNE
CZ-2C R/B 4.2 03:33:07 10° NE 03:37:39 30° E 03:39:59 21° SE
MSX 4.0 03:40:55 10° NNE 03:45:54 68° NNE 03:45:54 68° NNE
H-2A R/B 3.4 03:50:30 10° SE 03:54:32 39° ENE 03:58:42 10° N
Meteor 1-10 Rocket 4.5 03:56:18 59° NNW 03:56:18 59° NNW 04:01:08 10° N
Meteor 1-5 Rocket 4.1 03:50:41 10° N 04:03:52 - S 03:56:00 80° ENE
Cosmos 841 Rocket 3.9 03:56:29 56° SE 03:57:04 60° ESE 04:02:14 10° NNE
Cosmos 1605 Rocket 3.9 03:51:14 10° N 03:57:39 82° W 03:58:55 60° S
IRIDIUM 114 4.4 03:53:19 10° N 03:58:32 71° E 03:59:30 56° SSE
X-37B 3.6 03:59:50 16° NE 03:59:50 16° NE 04:01:01 10° ENE
SL-4 R/B 4.1 04:03:35 22° N 04:03:35 22° N 04:06:07 10° NNE
Cosmos 1763 Rocket 4.2 04:04:26 41° NNW 04:04:26 41° NNW 04:08:10 10° N
Cosmos 2333 Rocket 4.4 03:59:45 10° SSE 04:04:09 23° E 04:08:33 10° NE
IRIDIUM 103 4.2 04:02:26 10° N 04:07:41 88° E 04:08:38 61° S
CZ-4B R/B 4.5 04:17:47 10° ESE 04:19:46 16° ENE 04:21:47 10° NNE
USA 267 4.4 04:14:54 10° NNE 04:20:09 26° NNW 04:21:28 25° NW
Cosmos 540 Rocket 3.3 04:20:36 61° SW 04:21:28 77° WNW 04:26:39 10° NNE
ADEOS Rocket 3.9 04:17:00 10° SSE 04:23:38 53° ENE 04:29:37 10° N
IRIDIUM 106 4.3 04:20:50 10° N 04:25:57 60° W 04:27:01 49° SW
Cosmos 1727 Rocket 4.1 04:26:59 41° SW 04:28:43 52° W 04:34:53 10° N
ADEOS 4.3 04:24:02 10° NNE 04:29:08 52° E 04:34:12 10° S
Cosmos 2360 Rocket 2.1 04:29:26 39° SW 04:31:31 70° WNW 04:37:11 10° NNE
Cosmos 1570 Rocket 4.0 04:31:42 45° SW 04:33:07 61° WNW 04:38:25 10° N
Cosmos 990 Rocket 3.9 04:28:40 10° NNW 04:33:48 63° WSW 04:38:57 10° S
IDEFIX/ARIANE 42P 4.3 04:30:00 10° NNW 04:32:01 18° NW 04:32:01 18° NW
PAYLOAD A 3.8 04:29:52 10° N 04:34:28 57° WNW 04:35:28 47° WSW
Cosmos 2100 Rocket 4.1 04:30:27 10° N 04:36:51 80° E 04:43:11 10° S
Skynet4D Del rocket 4.4 04:36:20 31° SSW 04:37:15 33° SSW 04:42:20 10° SE
Celestis-02/Orion 38 4.5 04:32:52 10° SSE 04:38:08 67° WSW 04:43:18 10° NNW
FENGYUN 3A 4.5 04:35:05 10° NNE 04:40:21 52° E 04:45:36 10° S
deb Chang Zheng 4 3.9 04:37:21 10° NNE 04:41:36 65° ESE 04:45:49 10° S
Cosmos 44 Rocket 4.0 04:42:19 33° WNW 04:42:30 33° NW 04:46:51 10° N
ATLAS 2AS CENTAUR R/B 3.7 04:35:37 10° NNW 04:42:39 48° NE 04:49:08 10° SE
Cosmos 1459 Rocket 4.0 04:37:40 10° N 04:43:45 82° E 04:49:46 10° S
Cosmos 1802 Rocket 4.3 04:39:35 10° N 04:45:49 69° E 04:52:05 10° SSE
Okean 1 4.0 04:42:44 10° S 04:46:41 57° E 04:50:40 10° NNE
Cosmos 1484 Rocket 3.5 04:42:48 10° NNE 04:46:46 56° E 04:50:41 10° S
Cosmos 2123 Rocket 4.2 04:44:14 10° S 04:50:26 75° E 04:56:43 10° N
Cosmos 2322 Rocket 3.3 04:50:14 24° WNW 04:50:47 24° WNW 04:55:23 10° N
USA 234 3.8 04:44:36 10° ESE 04:50:59 59° NE 04:57:23 10° NW
Hubble Space Telescope 3.0 04:49:41 12° SSW 04:51:45 17° SSE 04:54:25 10° ESE
Cosmos 2263 Rocket 2.9 04:46:56 10° NW 04:51:48 30° WSW 04:56:40 10° SSW
Meteor 1-11 Rocket 3.9 04:48:04 10° NNW 04:53:28 46° W 04:58:46 10° SSW
Meteor 1-27 Rocket 4.4 04:52:37 25° WSW 04:55:08 35° WNW 05:00:31 10° NNW
BREEZE M DEB (TANK) 3.0 04:46:40 10° NW 04:56:10 87° NE 04:59:22 10° SE
Cosmos 1844 Rocket 3.6 04:51:12 10° N 04:56:42 51° ENE 05:02:11 10° SE
Cosmos 1437 Rocket 2.5 04:53:39 10° SSW 04:57:25 76° W 05:01:15 10° N
SJ-6F 4.3 04:55:02 10° N 04:59:03 62° WNW 05:03:03 10° SSW
Meteor 1-31 Rocket 3.1 04:55:28 10° NNE 04:59:17 65° E 05:03:07 10° S
SL-16 R/B 3.8 05:01:59 16° WNW 05:02:26 16° WNW 05:05:48 10° NNW
OAO 3 Rocket 4.1 05:00:45 17° SW 05:04:10 43° SSE 05:08:52 10° E
Cosmos 1536 3.5 05:04:56 10° NNW 05:08:33 32° W 05:12:10 10° SSW
Cosmos 2242 Rocket 3.5 05:06:47 10° S 05:11:10 83° W 05:15:35 10° N
CZ-4B R/B 3.7 05:08:30 10° NNE 05:11:58 47° E 05:15:26 10° S
Cosmos 372 Rocket 4.0 05:07:00 10° NNW 05:12:09 84° ENE 05:17:14 10° SSE
Cosmos 1733 Rocket 3.3 05:08:21 10° NNW 05:12:28 44° W 05:16:32 10° SSW
Intercosmos 25 3.4 05:08:06 10° SSW 05:12:32 51° W 05:15:50 10° N
Cosmos 1689 Rocket 4.2 05:09:53 10° SE 05:12:32 31° ENE 05:15:13 10° N
CZ-2C R/B 3.5 05:11:25 10° NNW 05:15:41 27° WNW 05:19:22 13° WSW
CZ-4B R/B 4.0 05:11:33 10° N 05:15:58 75° WNW 05:20:26 10° SSW
Cosmos 1898 Rocket 4.5 05:14:27 10° NW 05:18:39 25° W 05:22:53 10° SSW
Cosmos 2219 Rocket 2.2 05:14:24 10° SSW 05:20:03 79° WNW 05:25:46 10° NNE
ALOS 2.3 05:15:36 10° N 05:20:12 59° WNW 05:24:45 10° SSW
SL-8 R/B 4.4 05:16:58 15° WNW 05:20:15 34° SW 05:24:32 10° SSE
Cosmos 2173 Rocket 4.3 05:14:14 10° NNW 05:20:17 47° W 05:26:19 10° SSW
Meteor 2-4 Rocket 4.4 05:16:41 10° S 05:22:02 56° E 05:27:18 10° NNE
Delta 2 Rocket 4.2 05:19:08 10° SW 05:22:03 31° SSE 05:25:05 10° E
DELTA 4 R/B 4.3 05:15:32 13° W 05:26:17 32° SW 05:30:34 10° SSE
Cosmos 2298 Rocket 4.2 05:23:42 10° NNW 05:29:01 79° ENE 05:34:18 10° SSE
Cosmos 836 Rocket 4.4 05:24:48 10° SSW 05:29:59 82° WNW 05:35:12 10° NNE
H-2A R/B 3.7 05:28:16 10° SW 05:30:38 14° W 05:33:02 10° WNW
ERS-2 3.5 05:30:44 10° SW 05:33:22 19° W 05:36:02 10° NW
X-37B 0.6 05:32:22 10° WNW 05:35:32 67° SW 05:38:41 10° SE
Cosmos 2237 Rocket 3.6 05:32:59 10° S 05:38:19 44° ESE 05:43:37 10° NE
H-2A R/B 4.1 05:34:12 10° NNE 05:38:25 43° E 05:42:40 10° S
COSMOS 2428 2.8 05:33:07 10° SSW 05:38:45 63° WNW 05:44:26 10° NNE
Cosmos 1743 3.5 05:40:04 10° NNW 05:43:24 29° W 05:46:44 10° SSW
PSLV R/B 4.0 05:39:26 10° SSE 05:43:27 86° ENE 05:47:33 10° N
Cosmos 2333 Rocket 2.7 05:42:41 10° SW 05:48:05 40° WNW 05:53:29 10° N
Cosmos 1125 Rocket 3.8 05:46:16 10° NNW 05:51:33 77° ENE 05:56:45 10° SSE
Cosmos 2016 Rocket 4.4 05:46:10 10° NNW 05:51:42 38° W 05:57:14 10° SSW
